Theta_e
316 316 315 317 319 319 318 316 314 315 314 314 313 315 315 312 313 314 314 316 313 312 314 313 312 313 314 313 318 321 324 334 341 342 342 342 343 344 345 346 346 345 341 335 334 335 336 336 336 337 336 335 335 336 336 336 337 337 337 337 334 333 333 333 335 336 335 334 334 333 334 335 336 336 336 338 338 338 338 337 336 335 335 334 333 333
314 317 320 320 320 319 319 320 317 313 311 311 311 312 312 311 313 312 313 315 314 313 314 313 312 313 313 313 322 324 319 324 333 340 343 343 343 343 345 346 343 340 335 333 334 333 335 336 336 336 335 336 336 336 336 336 336 337 337 336 334 333 333 334 335 336 335 335 334 333 334 335 336 337 337 338 338 338 338 337 336 336 335 335 334 333
315 318 321 319 316 314 316 319 317 314 314 314 313 313 313 313 313 315 318 319 314 313 316 314 310 314 321 321 324 323 317 317 321 327 332 337 343 342 341 341 340 340 335 334 335 333 334 336 336 336 335 336 337 336 336 336 336 336 336 335 333 333 333 334 335 335 334 335 334 334 334 336 336 337 338 337 337 338 337 336 336 335 335 335 334 333
318 320 318 314 313 313 314 315 315 313 314 317 315 313 314 313 313 316 323 323 316 315 317 317 318 328 337 335 326 316 317 323 326 328 327 330 337 339 339 338 339 342 338 335 335 334 335 336 336 336 336 336 336 335 336 336 335 335 335 335 334 334 334 334 334 335 333 332 334 336 336 336 336 337 337 338 337 338 337 336 335 335 335 335 335 334
318 317 315 314 313 314 315 314 315 313 315 320 319 315 314 313 314 316 321 323 323 322 320 322 327 330 336 336 325 318 323 330 331 334 333 331 332 335 340 341 341 342 339 336 336 335 335 336 336 336 336 335 335 335 336 335 335 335 335 334 334 335 334 334 333 334 335 334 336 336 336 336 337 337 337 337 337 337 337 336 335 335 335 335 335 335
316 314 314 314 313 313 313 315 317 315 316 320 319 317 314 313 315 316 320 326 328 320 315 321 322 319 327 331 321 322 330 333 333 334 335 334 333 334 337 337 337 338 335 335 336 335 336 336 336 336 335 335 334 334 335 335 335 335 334 333 334 334 334 334 334 334 335 335 336 336 336 336 336 336 336 336 336 336 336 335 335 335 335 336 335 335
315 315 315 316 315 313 312 313 315 316 316 316 320 321 315 314 316 316 320 323 321 317 314 321 323 318 322 323 320 325 332 334 335 335 334 334 335 335 334 331 332 334 333 334 335 335 335 334 334 334 335 334 334 334 333 334 335 334 334 333 333 333 334 335 335 334 334 335 336 336 336 336 336 336 335 336 336 336 336 336 335 335 335 336 335 335
316 316 316 316 315 314 314 314 314 315 316 318 325 325 317 316 317 320 323 319 319 322 321 326 328 320 316 320 322 326 333 335 336 337 336 334 334 335 336 332 331 332 333 334 335 334 333 333 333 333 334 334 333 333 333 333 334 334 334 333 333 333 333 335 335 334 334 334 335 335 335 335 335 336 335 335 335 335 336 335 335 335 334 335 335 335
317 318 318 317 315 315 314 315 314 313 315 321 326 321 316 316 316 322 325 322 324 322 318 325 328 318 315 324 328 329 333 336 336 338 337 335 334 334 335 335 333 333 333 333 334 334 332 331 332 332 332 333 332 332 332 332 333 333 333 333 333 333 333 334 335 334 334 334 334 335 335 335 335 335 335 335 335 334 335 334 334 334 333 334 334 335
315 316 317 315 315 316 315 314 314 313 314 319 319 315 317 321 321 327 326 324 326 320 316 325 325 319 322 328 331 333 334 334 335 337 336 334 334 332 333 334 334 334 333 332 332 331 330 330 331 331 331 331 331 331 331 331 332 333 333 333 332 332 333 333 334 334 334 334 334 335 335 335 335 335 335 335 335 334 334 334 334 333 333 333 334 334
313 315 316 314 316 317 315 314 313 313 314 315 316 314 317 324 328 336 337 326 321 320 325 329 322 324 331 331 332 335 334 333 334 335 334 333 332 331 331 331 332 333 333 332 331 330 330 329 329 328 328 328 328 329 330 330 330 332 332 332 332 332 332 333 333 334 334 334 334 334 335 335 335 335 335 334 334 334 334 334 333 333 333 334 334 334
314 313 314 316 317 315 313 314 312 312 313 315 319 316 316 322 324 331 334 325 317 321 331 328 321 327 333 331 332 334 332 332 333 334 334 332 332 330 330 329 329 329 330 330 329 328 328 327 326 326 325 326 325 325 327 328 329 330 331 332 332 331 331 332 333 334 334 334 334 334 334 334 335 335 334 335 334 334 333 333 333 332 332 333 333 333
317 315 315 315 317 315 313 314 313 312 313 314 320 320 318 319 318 320 325 324 323 323 322 320 321 331 333 330 332 332 330 330 330 331 331 330 330 329 328 328 327 327 327 327 327 326 325 325 325 325 325 325 325 325 325 327 328 329 330 330 331 331 331 331 332 333 334 334 334 334 334 334 334 334 334 335 334 334 333 333 333 332 333 332 331 333
317 318 316 312 314 315 313 315 315 314 314 314 318 320 320 321 318 317 320 321 322 320 317 316 322 331 332 331 332 330 328 328 328 328 329 329 328 327 326 326 325 323 323 323 324 324 324 324 325 325 325 325 326 327 327 327 329 330 330 330 330 331 330 330 331 332 333 334 334 334 334 333 333 334 334 334 334 334 333 333 333 332 332 333 331 332
317 320 320 315 313 314 314 315 317 318 315 314 316 317 319 325 324 321 323 323 319 319 321 320 321 327 332 333 330 329 328 328 328 328 328 326 325 324 322 321 321 320 319 319 319 320 320 321 322 323 324 326 327 328 328 328 329 330 330 330 330 330 330 330 330 331 332 332 331 332 333 331 332 333 333 334 334 334 333 333 333 333 332 333 332 331
314 321 326 319 313 314 314 314 316 316 315 313 314 314 316 322 328 327 326 326 326 325 322 322 325 326 330 331 328 328 329 328 327 326 324 324 322 321 320 319 318 318 318 317 317 317 317 318 318 319 321 323 324 325 326 327 327 328 328 329 329 329 329 329 329 330 332 332 331 330 331 331 332 333 333 333 333 333 334 333 333 333 332 332 332 331
314 321 326 318 313 315 315 316 316 314 318 317 313 315 315 316 323 324 318 319 326 324 315 320 331 329 327 331 328 328 329 328 326 324 323 322 320 319 319 317 317 316 316 316 315 315 316 316 316 316 317 318 320 321 322 323 325 326 327 327 328 329 329 328 328 329 330 330 330 330 331 332 332 332 332 330 331 333 334 334 333 334 333 332 331 331
318 321 325 318 312 314 314 315 316 314 319 320 314 315 315 312 318 323 322 323 326 320 315 322 334 330 327 332 330 328 330 328 326 324 322 320 319 318 317 316 315 315 314 314 313 313 314 314 314 314 315 315 316 317 318 320 323 325 325 326 327 327 328 327 326 327 328 328 328 329 331 331 332 332 331 330 330 332 333 334 334 333 333 332 331 331
317 318 324 320 313 314 316 316 316 314 314 316 315 315 314 316 320 319 320 323 320 318 320 324 329 328 329 332 331 329 330 329 326 323 321 319 317 316 316 315 314 313 312 312 311 311 311 312 312 312 313 313 314 314 315 316 319 321 322 323 325 325 326 326 326 328 329 329 329 329 330 330 331 331 331 331 331 330 332 333 333 333 333 332 331 331
321 318 321 320 314 313 317 319 319 319 315 313 316 316 316 324 326 318 318 321 318 321 325 325 328 330 330 330 331 330 329 328 326 322 319 317 314 314 313 312 312 311 310 310 309 309 310 310 310 310 311 311 312 312 312 313 315 316 318 320 322 324 325 326 327 328 329 330 330 330 330 329 330 330 330 331 331 330 331 332 332 333 333 332 331 331
317 315 320 325 322 317 319 320 318 319 316 313 320 321 316 319 320 317 319 319 319 327 330 329 330 330 328 327 327 326 325 325 324 319 316 314 312 311 310 310 309 309 309 308 308 308 308 309 309 309 309 309 310 310 311 312 313 313 315 317 318 321 323 325 326 327 328 330 330 330 329 329 329 329 330 331 331 331 331 332 333 333 332 331 330 330
315 317 325 331 330 325 324 321 318 319 317 320 329 330 323 319 319 320 320 318 321 326 327 329 332 330 327 323 321 320 319 319 319 316 313 311 310 309 308 308 307 307 307 307 306 306 307 307 307 307 308 308 308 309 309 310 311 311 312 313 315 318 321 323 325 326 327 329 330 330 330 330 329 329 330 331 331 331 331 332 333 331 330 330 330 330
326 330 330 324 323 324 321 319 320 321 321 325 329 328 329 328 325 327 327 323 324 323 323 329 332 328 324 320 318 316 314 314 314 312 311 310 309 308 307 307 306 305 305 305 305 305 305 306 306 306 306 306 307 307 308 309 309 310 310 311 312 315 318 322 324 326 326 327 329 331 331 331 330 330 330 330 330 331 332 333 332 330 329 329 329 330
329 331 326 319 320 324 323 320 320 321 325 331 329 324 328 330 328 330 333 333 330 325 328 335 332 327 323 317 315 314 312 311 310 309 309 308 307 307 306 306 305 304 304 303 304 304 304 304 305 305 305 305 306 306 307 307 308 308 309 310 310 311 315 319 322 324 326 327 328 329 331 331 331 330 330 330 330 331 332 332 331 329 329 329 330 329
322 324 324 323 322 324 325 322 322 324 328 330 326 322 323 326 329 327 326 334 333 322 326 336 333 327 322 315 313 312 311 310 309 308 308 307 307 306 305 305 304 304 303 303 303 303 304 304 304 304 304 304 305 305 305 306 307 307 308 308 309 309 312 316 319 323 325 326 327 327 329 330 330 330 330 330 330 331 331 330 330 330 329 329 329 329
326 325 329 331 325 324 327 328 327 327 328 327 323 321 322 325 328 323 323 338 337 322 324 333 329 323 319 314 313 311 310 309 308 308 307 306 306 305 305 305 304 303 303 302 302 302 302 303 303 303 303 303 303 304 304 305 306 306 307 307 308 308 310 312 316 320 323 325 326 326 327 328 328 328 329 328 329 330 330 329 329 329 329 328 328 328
332 324 325 329 327 326 330 329 324 324 328 328 322 320 322 321 322 327 333 340 334 326 327 328 324 322 319 315 313 311 309 309 307 307 306 305 305 304 304 304 303 303 302 302 302 302 301 302 302 302 302 302 302 303 303 304 305 305 306 306 307 308 310 311 313 318 322 324 325 326 326 326 326 326 327 327 328 328 328 328 328 328 329 328 328 326
335 326 322 322 322 322 323 321 319 319 322 322 319 319 319 318 323 333 335 328 324 329 332 325 321 322 317 314 313 310 308 308 306 306 306 305 304 304 303 303 302 302 302 301 301 301 301 301 301 301 301 301 302 302 302 303 304 304 305 306 307 308 310 312 313 317 321 323 325 326 326 325 325 325 325 326 327 327 327 327 327 328 328 328 327 325
333 326 321 319 319 318 317 317 317 317 317 317 317 319 318 318 324 328 325 320 321 329 330 323 319 317 314 311 311 309 307 307 306 305 305 304 304 303 302 302 302 301 301 301 301 300 300 300 300 301 301 301 301 301 302 302 303 304 304 305 306 307 309 311 313 316 320 322 324 325 326 325 325 325 325 326 326 326 327 327 327 327 327 326 326 326
328 323 319 318 318 316 316 316 316 315 317 316 316 316 316 317 319 319 318 317 318 321 322 318 315 313 311 310 309 307 306 305 305 304 303 303 303 302 302 301 301 301 300 300 300 300 300 300 300 300 300 300 301 301 301 302 302 303 304 305 306 307 308 309 311 313 316 319 323 324 325 325 325 325 325 325 326 326 326 326 326 326 325 326 326 325
324 323 319 319 319 317 314 314 315 315 316 315 315 315 315 316 316 315 316 316 316 316 315 313 313 311 308 307 306 306 305 305 304 303 302 302 302 301 301 300 300 300 299 299 299 299 299 300 300 300 300 300 300 300 301 301 301 302 303 304 305 306 307 308 310 311 312 315 319 322 324 325 325 325 324 325 325 325 325 325 325 324 324 324 324 323
327 324 321 320 321 318 315 314 314 315 316 316 315 314 314 315 315 314 314 315 315 315 314 315 315 311 307 306 305 304 303 303 303 302 302 301 301 300 300 300 299 299 299 299 299 298 299 299 299 299 299 299 300 300 300 300 301 302 302 303 304 305 306 307 308 310 311 313 316 319 322 324 324 324 324 325 324 324 324 324 323 323 322 321 320 319
326 323 321 322 322 319 317 316 316 319 323 321 315 314 314 313 313 313 313 312 313 314 316 317 314 309 306 305 304 303 303 302 302 302 301 301 300 300 299 299 299 298 298 298 298 298 298 299 299 299 299 299 299 299 300 300 301 301 302 303 304 304 306 306 307 308 309 310 313 316 319 322 323 323 323 323 322 322 322 322 321 321 320 318 316 315
323 322 322 323 323 321 317 316 320 324 326 319 313 312 313 312 312 313 312 310 310 311 312 311 309 307 306 304 304 303 302 302 302 301 301 300 300 300 299 299 299 298 298 298 298 298 298 298 298 298 298 299 299 299 300 300 301 301 302 302 303 304 305 305 306 307 308 309 310 313 316 319 321 322 321 322 321 320 320 319 318 316 316 316 314 313
322 323 323 320 321 321 317 318 323 324 319 313 310 310 311 310 309 310 310 309 308 307 307 307 307 305 304 303 302 302 302 301 301 300 300 300 300 299 299 299 298 298 298 297 297 298 298 298 298 298 298 298 298 299 299 300 300 301 302 302 302 303 304 304 305 306 306 308 309 310 312 315 319 320 319 318 318 317 317 315 313 312 312 313 311 310
323 321 321 319 318 319 319 319 322 319 313 311 311 310 310 311 311 311 311 309 308 307 306 307 306 304 303 302 302 301 301 300 300 300 300 299 299 299 299 299 298 298 298 298 298 298 298 298 298 298 298 298 298 299 299 299 300 301 301 301 302 302 303 303 304 305 305 306 308 309 310 311 314 316 316 314 313 313 312 311 309 308 308 309 308 308
322 321 320 319 317 317 317 316 316 315 313 312 312 312 312 312 312 312 311 310 309 308 306 305 305 303 303 303 302 301 301 300 300 300 300 300 299 299 299 299 299 299 298 298 298 298 297 297 297 297 298 298 298 298 299 299 300 300 300 301 301 301 302 302 303 304 304 305 306 308 309 309 310 312 313 313 311 309 309 309 308 307 308 310 310 309
319 321 321 320 317 314 315 315 314 316 316 313 312 311 310 311 312 311 310 310 309 308 306 305 304 303 303 303 303 301 302 303 302 300 300 300 300 299 299 299 299 298 298 298 298 297 297 297 297 297 297 298 298 298 298 299 299 300 300 300 300 300 301 301 302 302 303 304 305 306 308 308 308 309 310 311 310 308 308 309 309 308 308 309 309 308
314 317 319 320 317 314 316 316 316 316 314 312 311 309 309 312 313 312 312 312 309 308 307 305 304 304 304 303 303 303 305 306 303 300 300 301 300 300 299 298 298 298 298 298 298 298 297 297 297 297 298 298 298 298 298 299 299 299 299 299 300 300 300 300 300 301 302 304 304 305 307 308 309 308 308 308 308 307 306 307 308 307 306 306 305 305
317 317 317 318 316 315 316 315 314 313 312 310 309 308 309 311 312 313 316 314 308 306 307 306 306 305 304 304 303 304 305 305 302 300 301 300 300 300 299 299 299 298 298 299 298 298 298 297 297 297 297 298 298 298 298 299 299 299 299 299 299 299 300 300 299 300 302 304 305 305 305 307 309 309 308 307 307 306 304 303 304 305 304 303 302 302
317 315 315 315 314 313 313 311 310 311 310 308 308 308 309 310 312 315 316 310 305 304 304 304 305 305 304 304 304 303 303 303 301 301 301 300 300 300 299 299 299 299 299 299 299 298 298 298 297 297 298 298 298 298 299 299 299 299 299 299 299 299 300 300 299 299 301 303 305 305 304 305 307 308 308 306 305 304 302 301 301 301 301 300 300 300
316 314 314 314 313 311 310 310 311 311 309 307 307 307 308 312 314 313 309 305 303 303 302 302 302 303 303 303 302 301 301 301 301 301 300 300 299 299 299 299 299 299 299 299 299 299 299 298 298 298 298 298 298 299 299 299 299 299 299 299 299 299 300 300 300 299 299 301 304 305 305 305 305 307 307 306 305 303 302 301 300 300 300 300 300 299
312 313 313 312 310 310 310 311 313 313 308 305 307 308 308 311 310 306 303 302 302 301 301 301 301 301 301 301 301 301 301 300 300 301 300 299 299 299 299 299 299 299 299 299 299 299 299 299 299 298 298 298 298 299 299 299 298 299 299 299 299 300 300 301 300 299 298 298 301 303 304 305 305 305 306 306 305 304 303 303 302 301 300 300 300 300
309 311 311 309 307 307 309 310 311 309 306 305 308 308 306 306 304 302 302 302 302 301 301 301 300 300 300 300 300 300 300 301 301 300 300 300 299 298 299 299 299 299 299 299 299 299 299 299 299 299 298 298 298 299 299 299 299 299 299 299 299 300 300 301 301 300 298 297 298 300 302 303 304 305 305 305 305 305 305 304 303 302 301 300 300 300
308 308 308 307 306 305 307 307 306 305 304 304 305 304 303 303 302 301 301 301 301 300 300 300 300 300 300 300 301 300 300 301 301 301 301 300 299 299 299 298 299 299 299 299 299 298 298 298 298 299 299 298 299 299 299 299 299 299 299 299 299 300 300 300 301 300 300 298 297 297 299 301 302 303 304 305 305 306 306 305 304 302 302 301 301 301
306 306 307 307 306 305 305 305 304 304 303 303 303 303 302 302 301 300 300 300 300 301 300 300 300 301 300 300 300 300 300 301 301 301 301 299 298 298 298 298 299 299 299 299 299 299 299 299 299 299 299 299 299 299 299 299 299 299 299 299 299 299 300 300 300 300 300 300 298 298 298 298 299 300 302 303 304 304 305 305 304 303 302 302 302 302
306 307 307 307 306 306 306 304 304 303 303 302 302 302 301 301 301 300 300 300 300 300 300 300 300 300 300 300 301 301 301 301 301 301 301 299 298 298 298 298 299 299 299 299 299 299 299 299 299 299 299 299 299 299 299 299 299 299 299 299 299 299 300 300 300 300 300 300 300 299 298 298 298 298 299 300 302 302 303 304 305 304 303 302 302 302
307 306 306 305 305 305 305 304 303 302 301 301 301 301 301 301 300 300 300 300 299 299 299 298 298 299 300 300 300 301 302 301 301 302 302 300 299 298 298 299 300 299 299 299 299 299 300 300 300 300 299 299 299 299 299 299 299 299 299 299 299 299 299 299 299 300 300 300 300 299 298 298 298 298 298 298 299 300 301 301 302 303 302 301 301 302
307 306 305 304 303 304 303 303 302 301 301 301 301 301 301 301 300 300 301 300 300 301 300 299 298 299 300 298 297 299 303 302 299 299 300 299 299 299 299 299 300 300 300 300 300 300 300 300 300 300 299 299 299 299 298 299 299 299 299 299 298 299 299 299 299 299 300 300 300 300 299 298 298 298 298 297 297 298 298 299 300 301 301 300 300 300
306 305 303 303 303 304 303 302 302 302 301 301 301 301 301 301 300 301 301 301 302 301 301 301 300 298 298 298 297 298 301 301 299 299 299 299 299 299 299 299 300 300 300 300 300 300 300 300 300 299 299 299 299 299 299 299 299 299 299 299 299 298 299 299 299 299 299 300 300 300 300 299 298 297 297 298 297 297 297 298 298 298 298 299 299 299
305 304 304 304 304 304 303 302 301 302 301 301 301 301 301 300 300 300 301 301 301 299 298 300 301 300 298 298 298 298 298 299 299 299 299 298 298 298 298 298 298 298 299 299 300 300 300 300 300 299 299 299 299 299 299 299 299 299 299 299 299 299 299 299 299 299 299 299 299 300 300 300 299 298 297 297 297 298 297 297 297 297 297 297 297 297
Wind_Speed
3 3 3 5 6 6 7 7 7 6 6 5 3 2 1 1 4 5 5 6 1 3 6 9 10 10 11 9 6 5 6 3 3 7 7 6 5 5 5 7 6 3 3 8 14 16 17 18 19 19 20 20 20 21 23 25 26 26 28 30 30 29 30 34 36 35 35 32 27 25 25 26 27 27 27 27 26 24 23 24 25 27 27 26 27 28
3 5 6 7 9 8 7 7 6 4 4 3 2 1 3 2 4 6 4 6 1 5 5 5 8 10 11 7 6 6 7 7 4 2 6 7 7 5 6 7 3 5 4 8 12 13 16 17 18 19 21 22 23 24 26 28 30 31 31 31 31 31 32 36 39 38 37 36 34 31 29 30 30 30 28 27 27 25 24 24 26 28 28 27 27 28
1 4 8 8 7 5 4 4 5 3 4 3 2 2 3 2 3 6 5 6 1 3 3 3 6 8 9 5 5 7 6 5 7 5 3 4 5 6 5 2 6 6 5 7 7 9 14 17 19 19 20 24 25 25 27 29 30 30 29 28 30 33 34 36 37 36 37 36 36 35 33 32 30 29 29 28 27 26 25 25 27 27 28 27 27 28
2 5 8 6 6 6 2 2 5 3 2 3 3 3 3 2 0 3 4 6 3 1 1 5 5 4 7 4 4 4 3 5 10 10 9 7 5 4 1 5 7 7 6 8 7 8 12 16 18 18 20 22 22 23 26 29 28 28 30 29 30 33 34 35 33 32 34 34 35 36 33 32 30 27 27 26 25 26 26 27 28 27 27 26 27 27
5 6 4 7 7 7 4 3 5 4 2 2 4 5 4 3 3 5 4 5 5 5 3 6 5 4 5 6 4 3 3 10 13 13 14 12 9 6 5 6 6 8 9 10 11 11 12 15 18 18 19 20 21 24 27 28 28 30 32 31 32 33 32 33 32 30 32 32 33 32 28 26 25 23 23 25 26 28 29 29 29 28 26 26 27 26
8 6 4 7 5 6 6 5 5 6 3 3 4 8 8 6 6 5 3 4 5 5 4 6 5 3 4 6 6 7 8 13 12 14 16 13 13 11 6 4 3 6 8 10 13 13 12 16 20 18 19 22 25 28 27 27 30 32 32 32 33 33 33 34 33 29 29 29 30 30 27 26 25 24 26 29 30 30 31 31 30 28 26 26 27 26
4 4 6 6 6 6 6 5 5 7 5 2 5 9 9 6 5 4 2 4 2 0 3 4 6 2 4 7 8 8 9 12 12 15 16 13 13 12 8 6 4 5 7 9 10 10 9 13 17 17 21 26 29 29 25 26 30 30 30 32 33 34 35 35 33 28 26 27 29 31 32 32 32 30 28 28 28 29 30 30 29 28 26 26 26 25
4 5 5 6 6 6 6 4 6 8 7 3 6 7 7 6 6 5 5 4 2 2 4 5 4 4 2 5 8 8 7 11 13 16 15 13 13 13 11 9 6 5 7 9 8 7 7 12 16 19 24 27 27 26 24 26 30 30 29 30 32 33 34 35 33 28 25 24 24 25 25 26 27 26 23 23 24 26 28 28 27 26 25 25 25 24
4 6 7 7 5 4 5 6 8 10 6 7 7 6 7 6 6 5 6 3 1 2 2 6 3 5 1 5 7 7 7 10 13 14 14 13 13 12 12 12 10 7 4 5 4 3 2 4 8 12 18 22 21 20 23 26 28 28 26 26 28 30 32 32 29 27 25 23 20 20 18 16 16 18 18 20 21 22 24 25 25 25 24 25 25 24
2 6 7 7 5 5 8 7 10 12 6 6 5 5 3 3 4 4 5 4 3 4 2 7 1 5 2 5 6 6 5 7 8 9 10 12 12 11 11 11 11 9 6 6 5 5 7 10 9 8 7 8 10 13 18 21 21 23 23 22 23 25 27 26 25 26 25 23 20 18 16 13 13 15 15 16 18 19 20 22 23 24 24 25 25 25
3 2 4 5 5 7 8 6 10 13 9 3 5 5 5 5 5 4 3 4 3 1 5 8 1 5 1 3 4 4 3 4 5 6 8 10 12 11 10 11 10 9 7 7 7 8 12 16 18 19 18 17 14 8 6 9 12 15 17 17 16 16 16 15 17 20 21 21 18 15 14 12 12 15 14 13 15 17 18 20 21 22 24 25 26 25
5 2 2 4 6 5 4 3 5 8 6 5 5 4 4 2 5 4 4 4 4 2 6 5 2 8 3 2 2 4 4 5 5 5 7 9 10 10 10 10 10 8 8 8 8 8 11 13 17 20 22 25 27 24 19 15 12 13 14 14 12 9 7 6 7 11 16 17 15 12 13 15 14 15 15 14 14 16 18 19 19 19 20 22 23 25
4 3 4 4 5 5 5 2 1 2 4 5 4 5 5 1 2 1 3 1 2 3 3 4 3 6 1 2 1 4 5 5 5 6 7 9 9 9 10 9 9 9 9 9 8 8 8 8 11 14 16 18 22 23 22 19 16 13 14 16 16 13 9 6 5 6 12 16 15 12 11 15 16 15 15 15 16 18 20 21 22 21 20 20 21 24
3 5 4 2 3 3 7 5 2 2 2 5 6 5 5 3 2 2 3 0 2 2 2 4 2 3 0 1 4 5 4 4 6 7 8 9 9 9 10 11 10 11 10 9 9 9 8 9 10 11 11 11 13 15 16 15 14 11 10 12 14 12 11 10 7 6 8 11 14 15 13 13 16 17 17 18 19 22 23 24 25 24 23 24 24 25
2 4 4 4 3 3 8 7 7 7 4 3 4 6 6 5 4 3 3 3 3 2 1 2 1 3 2 1 4 5 4 5 7 8 8 9 9 8 10 11 11 12 11 9 9 10 10 12 14 14 15 13 12 14 14 13 12 11 9 6 6 6 10 13 12 9 8 7 8 14 18 15 15 18 20 20 21 23 25 26 26 24 25 27 27 27
4 4 7 5 3 4 7 5 6 8 4 1 2 6 4 5 6 3 3 5 5 2 2 3 2 1 1 3 5 5 5 7 8 8 9 10 9 9 10 10 10 9 8 8 8 8 10 13 16 17 17 17 16 17 17 17 15 13 11 9 6 5 6 8 9 9 11 11 10 14 17 16 17 20 20 20 20 22 24 25 26 25 25 26 27 27
3 4 7 3 2 4 7 6 5 6 4 1 2 4 3 4 8 5 2 1 3 4 1 1 3 2 1 3 5 7 7 7 8 8 9 9 10 11 10 9 9 8 7 8 7 7 9 12 15 16 17 18 20 21 21 22 21 17 14 12 10 9 9 9 10 11 11 11 11 13 15 15 18 21 20 18 18 20 24 25 24 24 23 23 25 26
4 3 6 1 3 5 3 4 2 2 6 4 3 5 2 3 5 4 2 2 4 4 1 2 3 2 1 1 2 6 7 6 7 7 8 10 11 10 9 8 9 9 9 9 9 9 11 14 17 17 18 20 21 22 23 24 23 20 18 16 13 13 13 13 14 14 12 9 8 11 14 16 16 17 17 17 17 20 24 24 23 23 22 23 24 24
3 1 6 2 2 4 2 6 3 4 3 5 5 4 4 3 1 1 3 2 2 3 1 3 3 1 0 1 2 5 6 6 6 8 10 11 11 9 8 9 9 9 9 10 10 10 11 15 18 18 19 20 21 23 24 24 24 22 21 19 17 15 14 14 14 14 12 10 11 12 15 18 20 19 17 17 18 19 21 23 23 23 22 23 23 23
3 2 4 5 2 1 3 4 2 2 4 3 4 3 2 3 4 2 2 3 4 3 2 2 2 1 0 1 2 5 5 6 7 8 10 10 10 8 8 8 9 9 9 10 10 9 11 15 18 18 18 18 19 21 22 22 23 23 23 22 21 18 16 14 14 12 12 13 14 16 18 20 21 19 17 16 17 18 20 22 23 23 22 22 22 23
2 3 2 5 5 1 1 1 4 5 1 1 3 2 0 2 3 2 1 2 4 4 4 3 1 1 0 2 4 7 6 5 8 9 9 8 8 9 9 9 9 9 9 10 9 9 11 15 18 19 19 18 17 19 21 21 21 22 23 24 24 22 19 17 15 13 12 14 16 18 20 20 19 18 18 19 19 20 22 22 23 23 21 20 22 24
2 3 2 2 4 3 1 4 2 5 5 3 3 2 3 3 4 3 1 1 2 4 4 5 3 2 2 3 5 8 7 7 9 10 8 8 8 8 8 9 9 9 10 10 9 9 11 14 17 19 20 20 20 20 21 21 21 21 22 23 24 24 22 19 16 13 12 12 16 19 19 19 21 21 20 20 21 23 23 22 21 21 19 20 23 24
3 4 3 2 2 1 1 4 2 7 10 8 4 2 2 3 4 5 4 3 2 3 2 4 3 2 3 5 6 7 8 8 9 9 7 6 6 7 7 8 9 9 10 10 10 10 11 13 15 15 17 19 20 20 21 21 21 20 21 22 23 23 23 21 17 13 11 11 14 20 21 20 22 23 22 22 24 25 24 22 21 20 19 21 23 24
3 4 4 1 3 3 3 4 4 7 8 7 5 3 3 1 2 5 5 3 3 2 2 4 2 2 4 6 6 7 8 9 9 8 7 6 5 6 7 8 8 9 10 10 11 11 13 14 13 14 15 16 17 18 19 20 20 19 19 20 21 21 22 22 19 14 12 12 13 17 21 22 22 23 25 25 26 26 24 21 21 21 21 22 22 22
1 1 4 4 1 4 4 4 5 6 5 4 3 4 4 3 2 4 3 3 3 2 3 5 3 2 4 6 6 7 9 10 8 7 7 6 6 6 7 7 8 9 10 11 11 12 14 14 15 16 17 17 18 18 19 21 21 20 20 20 20 21 23 23 20 16 13 12 14 14 16 21 23 25 28 28 28 28 25 21 22 22 22 22 21 23
3 2 3 5 5 3 2 2 1 1 3 3 3 6 6 5 2 2 3 4 2 2 3 4 3 4 6 7 7 6 8 9 8 7 7 7 7 6 6 7 8 8 9 11 11 12 13 14 16 18 19 19 21 21 22 24 25 26 26 26 25 25 25 24 22 19 15 13 14 15 15 18 22 24 26 26 27 29 27 23 23 22 21 21 22 24
4 3 3 5 5 5 5 3 2 2 3 3 4 7 7 5 3 2 4 3 4 4 3 1 5 8 7 6 7 6 7 7 6 7 7 7 7 7 7 7 7 7 8 9 9 10 12 13 15 19 21 22 24 24 25 25 27 29 30 32 32 30 28 26 24 21 16 14 14 15 17 19 20 22 24 25 26 28 26 22 22 22 21 22 23 24
5 3 4 8 8 4 4 5 5 7 7 5 5 6 7 6 5 6 5 2 4 5 1 2 7 9 6 6 7 5 5 6 6 7 6 6 6 6 7 7 8 9 10 10 10 11 12 12 14 19 23 24 25 27 27 26 27 27 28 31 33 33 31 29 27 23 18 15 14 14 15 16 18 20 23 24 24 25 24 21 21 22 23 25 25 25
6 2 3 8 10 9 7 8 10 12 10 9 9 8 8 9 8 8 5 2 2 3 4 8 10 8 5 7 7 5 5 6 6 6 5 6 6 7 7 8 10 10 11 11 12 12 12 13 14 19 22 23 25 27 28 28 29 29 29 32 32 32 31 30 28 25 20 16 15 14 13 12 15 18 19 19 19 22 24 24 24 24 25 26 27 27
5 3 2 7 10 9 8 6 9 13 12 10 11 10 9 11 11 9 7 7 8 7 8 12 12 8 5 6 6 6 6 5 5 5 6 7 8 7 8 9 9 9 10 11 12 12 12 13 16 19 21 22 24 27 28 30 32 31 32 34 34 32 30 28 27 26 23 21 17 14 13 12 13 14 15 17 18 21 25 27 28 27 27 28 28 28
4 3 2 4 7 6 5 5 8 12 14 12 11 9 8 9 9 8 6 7 9 9 9 11 10 6 4 5 7 6 5 5 5 6 7 8 8 7 7 8 8 8 9 10 11 11 11 13 17 18 20 21 23 26 29 32 33 32 32 33 32 31 29 27 27 26 25 23 19 15 13 14 14 13 14 16 15 19 25 28 28 28 28 29 29 28
4 5 3 3 5 2 1 5 8 10 14 13 10 9 8 7 6 5 4 4 4 8 10 9 6 3 4 5 7 7 6 7 6 6 7 7 7 8 7 8 8 8 9 10 10 11 11 13 16 17 19 21 23 26 28 29 29 30 31 31 30 29 27 27 27 27 26 25 20 15 11 12 14 13 15 15 14 18 25 28 28 28 28 27 27 30
4 5 3 2 4 3 3 4 2 4 7 6 5 5 4 4 5 5 5 7 5 4 6 4 3 5 6 6 6 6 6 6 6 6 6 5 6 7 7 7 8 8 9 9 10 10 11 12 15 17 18 20 23 25 26 25 26 27 27 27 27 27 27 27 28 28 28 27 24 17 11 7 10 11 12 12 12 18 26 28 28 28 28 27 27 29
4 6 3 1 4 5 5 4 2 3 2 1 3 2 0 4 8 8 6 7 7 5 5 5 6 7 7 6 7 7 6 6 6 6 5 5 5 5 5 7 8 8 8 9 9 10 12 14 16 18 20 22 23 24 24 24 24 24 25 25 26 26 27 26 27 28 28 29 27 22 15 7 3 8 10 11 15 21 26 28 28 28 29 30 28 28
5 5 3 2 3 4 2 1 2 1 1 1 2 4 5 8 11 12 9 7 7 8 9 9 8 8 8 7 7 7 7 7 6 6 7 7 5 4 5 6 7 8 8 8 9 11 13 15 17 19 20 21 23 23 24 23 23 23 25 25 26 26 26 26 27 28 28 29 30 26 21 14 6 6 11 14 17 23 26 26 27 28 30 30 28 27
6 5 3 3 2 3 2 2 1 2 3 4 3 3 4 5 6 7 8 7 6 5 7 8 8 8 9 9 7 7 8 7 7 7 7 6 5 5 5 5 6 7 7 8 9 11 13 15 16 18 19 20 21 23 24 23 22 23 24 25 26 27 27 26 28 29 29 29 29 29 26 19 12 12 16 16 16 19 25 26 25 26 28 28 27 26
6 5 4 3 2 2 3 2 3 3 3 3 2 1 0 1 0 1 3 4 4 3 5 8 9 8 8 8 7 7 6 5 5 6 6 6 6 5 6 6 6 7 8 9 10 11 14 15 16 17 18 19 21 23 23 23 23 23 24 26 27 28 28 28 29 29 29 28 27 28 28 23 18 17 19 21 18 17 23 28 26 24 26 28 27 25
6 4 5 4 1 2 4 3 3 2 2 2 2 0 1 1 2 2 3 2 2 3 5 8 8 8 7 7 6 6 4 2 4 3 4 5 5 5 6 8 9 9 10 12 13 14 16 16 16 17 19 20 22 23 23 23 24 24 25 26 27 28 28 29 28 28 28 28 26 25 26 26 23 21 21 23 21 18 21 27 26 24 25 27 27 26
9 5 5 6 3 2 4 3 2 2 1 1 2 1 3 2 2 2 3 1 1 2 4 7 8 7 7 7 6 5 2 1 2 1 2 3 4 5 5 7 9 11 12 14 15 15 16 16 16 17 20 21 22 23 23 24 25 26 26 26 26 27 28 28 28 27 26 26 26 24 24 25 26 25 24 23 21 18 19 23 24 24 25 25 26 27
8 5 4 5 4 3 3 3 1 1 0 1 1 2 4 3 1 1 0 1 2 3 3 5 6 5 6 6 4 2 1 1 3 2 1 3 4 6 6 6 8 10 12 14 14 14 15 16 17 18 20 21 21 22 23 24 26 27 26 26 26 27 27 26 26 25 25 25 26 26 25 25 25 25 24 23 21 19 19 21 23 25 25 25 26 27
4 4 3 4 4 4 4 3 1 1 1 1 2 4 4 2 1 2 1 2 3 4 4 4 4 3 3 3 3 1 2 4 4 3 3 4 4 6 7 8 9 10 11 12 13 13 14 16 17 18 18 19 20 21 22 24 25 26 26 27 28 26 24 23 24 26 27 26 27 27 26 26 26 25 23 22 22 22 21 20 22 25 26 26 25 26
2 3 3 2 3 2 3 3 1 1 1 1 3 4 2 0 2 2 2 3 5 5 5 5 5 5 5 5 5 5 5 6 6 4 3 4 3 4 7 9 10 11 12 12 12 13 14 15 16 17 17 19 20 21 22 23 24 24 25 26 27 25 23 23 24 26 27 28 28 27 26 25 25 25 23 22 23 24 22 20 20 23 26 26 25 24
1 2 2 1 1 2 3 3 2 2 0 2 2 2 2 1 2 3 5 5 6 6 7 6 5 6 7 8 7 7 7 6 5 4 3 3 3 4 6 8 9 9 10 11 12 13 13 14 15 16 16 18 19 20 22 22 22 23 24 25 25 24 24 25 25 26 27 28 28 28 26 24 23 22 23 23 23 23 22 19 18 21 25 26 24 23
0 1 2 2 0 1 2 2 1 1 2 2 1 2 2 2 4 5 6 6 5 6 5 5 6 6 7 8 7 6 6 5 4 3 3 2 3 5 6 7 7 8 8 9 11 11 12 12 13 14 15 16 17 19 20 21 21 21 22 23 22 23 25 25 26 28 28 28 27 27 27 25 22 21 20 21 23 23 22 19 17 18 23 26 25 23
1 2 3 3 3 3 3 3 3 3 4 4 5 5 6 6 5 6 7 6 6 5 5 5 6 5 6 7 7 5 5 4 4 3 2 2 3 4 5 5 6 7 7 8 10 11 11 11 11 12 13 14 15 17 18 19 19 19 19 20 21 21 22 24 26 27 28 27 27 27 27 27 25 23 20 18 19 21 21 19 17 17 20 23 24 23
3 4 4 4 5 6 6 5 5 6 6 8 7 6 7 7 6 6 8 6 5 5 5 5 6 5 5 6 5 4 4 4 3 3 2 2 2 2 2 3 5 6 7 8 9 10 11 12 12 13 14 15 15 15 15 16 16 16 17 18 19 19 20 21 23 24 25 25 25 26 27 28 28 27 25 22 19 19 18 18 17 17 18 20 21 21
1 2 4 4 4 3 4 5 6 7 8 8 8 7 7 7 6 5 6 6 6 6 5 5 5 6 5 5 5 5 4 4 3 2 1 1 0 1 1 3 5 5 6 6 8 9 10 12 13 14 14 15 15 14 14 13 14 14 15 16 17 18 20 20 21 21 21 22 23 23 24 25 26 27 28 26 24 22 19 17 16 16 15 16 16 17
1 3 5 5 4 4 5 7 8 8 8 6 6 6 6 6 7 6 7 7 7 7 7 8 7 6 5 5 5 5 4 4 4 3 2 2 3 4 4 4 4 5 5 6 7 8 10 11 12 13 12 12 12 12 13 14 14 14 14 14 14 16 18 20 20 19 19 19 21 21 21 21 22 24 26 26 26 25 22 20 18 16 14 12 12 14
2 3 4 5 6 6 7 8 8 8 8 6 6 6 5 6 7 8 8 7 7 6 6 7 7 6 7 7 7 6 4 3 4 5 4 4 5 5 5 5 5 5 5 6 7 8 9 10 11 11 11 11 11 11 12 12 14 15 14 14 13 13 15 17 18 19 18 17 18 19 19 18 19 21 22 23 24 24 23 22 21 19 17 14 13 14
4 4 5 7 6 3 4 7 7 6 6 5 5 6 6 6 7 9 8 6 6 6 5 5 5 5 6 8 9 8 5 4 5 5 4 5 5 4 4 5 5 6 6 6 8 8 8 9 10 9 10 10 11 11 11 10 11 13 14 14 13 12 13 14 15 17 18 16 15 15 15 16 16 17 18 19 20 21 21 21 20 19 18 16 15 14
4 5 5 6 5 4 7 9 5 3 5 6 5 6 6 6 7 8 7 6 6 6 7 7 5 4 4 4 6 6 6 5 4 4 4 4 3 3 4 5 6 7 7 7 8 9 10 10 10 8 9 10 10 10 10 11 11 12 13 13 13 12 11 12 11 13 14 15 14 12 11 11 12 13 14 16 17 18 19 20 20 19 18 17 15 14
Wind_Direction
141 162 192 186 194 195 198 186 178 176 146 148 139 119 199 245 280 278 265 280 251 180 249 223 219 244 249 258 289 330 6 19 163 147 166 192 209 211 189 206 204 149 106 101 112 132 156 167 169 167 162 166 174 177 178 176 179 184 190 198 199 195 194 192 190 189 196 205 212 217 218 218 219 219 220 224 226 224 222 219 215 213 212 213 210 208
120 179 217 211 200 192 190 185 177 157 120 124 146 163 290 239 258 273 265 295 250 170 258 219 203 241 245 266 330 358 19 360 336 153 187 200 199 202 203 210 151 83 71 83 99 131 149 155 159 158 158 165 173 181 184 182 185 192 196 198 192 187 189 191 190 188 192 203 208 210 214 215 215 217 217 221 226 226 222 218 214 213 213 214 212 210
129 215 233 220 191 153 137 147 149 143 120 106 117 150 266 247 277 293 283 297 275 167 267 160 169 243 265 289 360 21 27 9 358 1 313 262 225 220 220 185 91 81 66 80 100 130 140 149 156 157 162 173 181 184 186 188 191 193 196 195 190 190 194 197 197 189 186 196 205 208 211 211 211 214 215 218 222 222 218 215 212 211 212 213 212 210
177 245 233 192 138 129 147 146 128 125 110 116 132 156 249 246 26 291 286 305 336 19 268 132 134 285 312 336 57 47 31 46 27 18 10 348 291 271 19 82 110 124 105 102 121 135 141 149 156 162 167 176 183 184 189 192 191 194 198 198 193 196 201 206 209 199 188 190 198 204 208 208 208 211 214 215 217 217 215 212 210 210 211 212 210 209
218 241 191 132 134 152 185 199 143 156 251 236 178 179 233 233 196 224 272 321 348 1 29 93 60 337 336 351 5 335 19 48 30 22 22 9 355 4 57 87 123 139 130 131 138 144 150 156 164 168 169 175 185 193 195 192 193 199 202 199 196 199 202 206 212 207 195 192 194 196 199 201 203 207 210 211 211 210 209 209 209 209 210 211 210 208
235 231 122 118 148 158 179 214 178 167 202 286 223 201 220 228 222 235 310 6 31 9 360 76 74 308 322 3 351 333 21 40 27 28 26 14 16 25 39 54 83 114 129 141 146 154 160 161 166 170 173 178 191 201 200 196 199 202 202 199 196 199 201 203 210 208 201 197 192 189 188 189 193 200 206 207 207 204 204 207 208 208 207 208 210 209
232 191 149 151 160 160 182 223 209 165 148 281 234 204 212 216 202 191 83 55 78 343 325 68 112 203 336 12 350 334 20 33 28 34 29 21 27 30 28 21 45 97 119 137 147 156 157 158 164 175 185 189 197 203 200 201 205 204 202 199 197 199 201 202 206 207 205 203 198 195 194 194 195 199 204 207 207 205 205 207 208 209 207 207 210 209
181 162 171 167 153 163 186 221 210 159 132 232 238 195 185 178 178 164 104 96 182 216 334 7 96 121 17 354 333 331 20 28 27 34 31 29 29 32 36 33 42 83 124 141 148 155 160 170 176 185 194 197 201 201 200 206 210 208 204 199 198 202 204 204 207 209 209 209 208 207 207 208 204 201 202 204 206 207 206 207 209 211 210 208 210 211
170 166 184 173 154 177 199 205 185 152 147 240 231 180 176 170 162 148 107 105 114 80 339 317 43 92 310 304 334 355 30 25 21 26 28 31 29 28 37 42 48 54 80 113 127 144 143 186 198 204 205 204 204 203 204 208 212 213 208 201 201 205 206 207 209 210 211 211 214 217 223 229 220 207 205 204 205 207 205 205 208 211 212 209 210 213
211 188 180 158 157 201 218 201 163 158 190 236 192 121 84 79 90 95 103 110 51 66 219 266 26 106 273 313 349 6 26 12 9 19 23 30 31 28 30 38 48 51 50 50 40 31 20 10 355 327 281 239 226 216 211 211 216 217 214 209 209 210 210 211 212 211 210 212 217 223 226 231 226 214 210 206 205 208 208 206 206 210 212 211 209 211
278 226 161 154 180 208 218 191 161 176 190 158 127 96 52 38 40 46 64 93 77 16 246 254 260 101 126 317 349 9 20 354 1 24 24 29 30 27 27 31 37 40 45 45 35 26 20 17 14 6 356 347 339 325 272 248 246 240 233 230 229 225 221 221 220 215 213 216 222 229 229 227 226 218 214 209 203 208 213 212 210 211 213 212 209 210
321 344 189 221 212 200 196 185 173 185 172 104 113 113 93 16 17 27 356 45 103 252 259 250 61 76 101 254 341 29 34 17 16 29 31 34 32 29 32 32 31 29 32 37 37 30 24 21 20 19 11 358 351 351 350 340 317 294 278 271 279 288 276 267 253 232 227 229 232 236 232 228 227 223 219 214 205 206 212 214 214 214 217 217 211 210
314 247 255 283 234 179 150 193 250 101 99 107 115 98 106 56 17 39 298 4 161 239 231 195 100 68 85 228 77 48 35 25 29 43 48 48 43 40 39 37 35 31 28 30 31 29 27 24 20 23 21 2 347 343 337 335 335 323 304 296 308 326 323 308 309 276 245 239 238 239 237 233 231 229 225 219 214 214 214 215 215 212 218 224 218 211
304 289 298 308 261 183 144 158 171 126 127 144 144 125 128 124 103 205 261 216 206 254 218 207 143 82 275 225 101 78 40 22 37 48 55 56 50 47 43 39 37 31 27 25 24 24 21 18 12 11 17 8 351 343 333 328 333 336 322 299 300 319 312 284 283 292 256 237 232 231 233 236 233 233 229 223 222 222 220 221 219 212 214 224 225 219
184 285 260 195 239 187 162 175 171 156 150 167 155 130 140 149 141 192 212 166 195 223 283 294 84 118 211 160 89 87 57 39 47 45 49 49 42 47 48 41 37 28 23 22 20 19 15 12 11 6 6 5 358 358 355 346 339 343 350 326 290 309 308 281 268 273 266 246 228 225 228 233 234 232 227 221 224 226 225 227 224 215 213 220 225 227
156 236 252 237 240 173 172 192 154 126 116 238 137 105 137 179 144 140 180 173 176 149 19 358 84 108 178 106 71 77 78 62 59 50 48 44 32 37 43 37 34 28 21 20 17 13 9 9 13 11 7 7 8 10 11 7 358 350 348 345 331 315 301 279 265 264 266 260 240 226 228 231 233 232 224 217 222 230 232 232 231 225 220 221 224 226
128 249 277 291 266 203 180 185 161 147 160 191 123 143 194 167 124 119 180 176 99 117 43 354 123 87 64 96 63 68 82 72 63 56 54 48 38 37 34 26 23 16 11 12 8 359 357 4 10 10 8 8 10 13 16 15 13 7 356 349 342 319 298 288 274 260 260 254 224 210 219 226 230 231 224 215 218 232 238 237 239 239 234 230 227 225
140 259 285 267 240 253 181 133 95 134 140 122 168 189 159 78 90 107 135 16 44 120 248 352 112 117 54 159 93 81 87 82 66 59 54 45 40 36 27 20 15 5 2 3 3 360 356 358 360 1 5 8 8 10 14 17 20 20 11 1 354 338 323 314 291 265 258 257 227 211 217 225 232 233 229 225 226 234 239 240 243 245 243 238 231 227
130 287 289 271 229 278 45 80 40 351 68 124 164 162 114 112 145 97 120 123 97 138 162 24 47 88 75 224 145 108 108 106 75 55 52 43 36 30 18 14 9 5 5 2 2 2 357 355 352 351 356 2 6 8 11 15 19 22 17 10 5 355 343 332 309 278 262 261 253 236 226 230 235 231 226 229 232 234 237 242 245 245 244 239 230 226
114 110 281 292 305 305 31 62 165 279 354 60 83 50 70 137 156 162 142 147 151 161 151 85 22 293 223 322 102 104 106 116 93 66 57 47 36 26 14 9 4 4 6 1 357 356 353 351 348 347 349 354 2 7 9 13 15 16 15 13 9 2 356 350 335 310 286 272 262 252 243 240 240 239 235 233 235 237 240 242 242 241 241 236 230 227
85 113 231 295 329 32 70 341 208 197 214 64 78 58 324 81 108 150 108 108 135 147 152 129 138 232 111 11 63 75 58 75 90 80 66 52 37 24 13 9 4 358 358 357 352 350 349 348 347 346 348 353 1 5 8 11 12 12 12 10 7 3 360 358 353 340 313 282 265 259 254 245 243 245 239 231 232 240 244 242 239 237 233 227 227 227
140 145 170 300 354 54 41 311 254 151 129 132 126 132 155 126 116 125 150 289 92 117 156 146 152 183 80 57 71 71 53 52 72 78 71 54 40 26 13 9 4 356 353 352 349 347 346 346 345 345 349 357 3 4 6 7 8 10 9 7 5 2 360 357 351 346 328 291 263 258 259 253 249 247 239 233 237 241 238 235 233 229 220 217 222 224
137 112 89 37 359 110 230 300 17 96 96 91 78 80 112 117 116 126 179 219 78 82 128 104 110 147 88 78 78 77 70 61 63 72 74 57 41 30 17 11 6 358 353 349 346 344 344 345 345 346 351 358 2 2 2 3 4 6 6 5 3 359 357 355 348 337 326 304 269 255 254 258 258 254 248 245 245 240 232 226 222 216 211 213 216 219
89 87 83 57 325 318 275 289 9 53 73 73 45 32 50 38 120 140 168 172 118 117 110 78 91 155 115 93 84 82 81 73 64 63 64 55 37 25 19 15 7 359 354 350 346 341 343 347 350 353 357 358 359 359 359 1 1 2 2 3 2 358 354 352 347 338 326 312 287 260 248 250 256 254 248 246 245 240 231 220 213 209 207 206 206 213
79 81 94 108 38 351 329 326 7 22 40 67 25 351 9 13 61 123 123 85 96 161 142 118 131 141 114 99 86 82 79 74 66 60 59 53 37 22 18 16 8 1 356 350 347 344 344 349 354 358 358 358 358 356 356 359 360 0 1 1 360 357 354 352 346 338 329 313 297 281 258 248 246 243 238 237 239 238 231 218 212 208 204 199 200 205
105 101 107 129 148 170 193 226 214 41 34 56 16 357 10 15 22 135 122 80 102 164 108 107 138 126 111 97 80 72 74 71 64 59 56 50 40 26 17 15 9 4 359 353 348 346 346 349 353 356 358 360 1 359 358 358 360 0 359 359 0 357 354 353 347 338 327 310 293 282 272 260 252 246 241 237 235 236 230 216 209 206 199 198 197 194
99 72 63 106 131 176 185 198 200 120 79 61 13 4 9 359 349 81 104 111 159 140 58 31 149 131 118 101 83 68 69 71 62 52 50 44 37 28 22 14 6 6 5 358 351 348 350 350 351 355 357 360 1 2 1 0 1 1 359 358 0 360 356 353 349 342 328 312 294 275 268 267 262 256 252 247 242 239 229 210 201 199 194 195 194 186
98 55 31 69 70 66 95 82 64 73 76 77 60 25 16 19 35 66 81 118 146 123 88 193 138 123 111 96 86 76 72 74 65 56 52 47 40 34 25 12 9 11 6 359 357 356 355 355 353 355 356 355 356 358 0 1 1 1 360 359 360 0 360 355 350 347 337 322 307 285 269 262 256 252 250 247 239 231 218 199 193 196 193 191 190 186
103 58 27 77 68 49 56 72 80 84 78 66 64 52 35 41 59 74 74 57 95 123 159 145 120 106 99 92 83 75 73 73 69 64 61 56 46 37 27 19 15 11 2 357 358 358 358 357 355 354 352 350 351 355 358 359 0 360 0 1 1 1 2 357 351 348 343 334 321 301 280 259 253 255 250 239 223 209 199 189 189 193 191 188 186 185
97 61 60 95 83 55 40 56 84 91 85 63 52 51 51 57 66 72 78 79 77 85 113 115 103 89 90 93 87 84 80 77 74 65 56 53 45 34 29 24 16 7 2 360 359 357 356 356 354 352 350 349 350 353 355 357 358 358 359 1 1 1 1 359 356 353 349 346 337 317 294 268 258 260 248 229 210 193 182 180 183 185 184 183 183 184
79 130 171 93 80 58 39 62 85 90 88 71 48 38 45 57 58 53 64 82 83 85 96 101 96 89 91 95 88 81 73 70 66 55 50 46 39 34 31 24 15 10 7 2 359 356 354 354 353 351 350 348 347 351 355 356 355 357 359 359 359 359 360 1 3 2 358 354 347 332 306 276 260 252 238 224 206 184 173 171 172 173 173 177 180 182
69 137 170 80 85 100 104 111 108 97 87 71 48 38 40 49 58 46 32 45 88 118 118 109 103 111 118 107 90 74 66 65 56 49 50 45 36 35 31 23 17 13 10 5 360 356 353 353 351 348 346 345 347 351 355 354 354 356 358 357 356 357 1 6 9 8 6 3 356 348 321 278 256 239 223 218 204 179 169 166 165 165 168 171 172 174
87 128 146 109 108 142 191 185 140 82 78 59 26 26 41 60 78 65 32 22 37 106 126 119 124 127 123 115 99 81 71 66 55 47 49 46 42 39 32 26 20 15 12 7 360 355 351 349 346 344 345 346 348 352 354 356 357 358 358 357 357 1 5 9 13 12 11 9 5 0 346 291 245 219 204 204 195 171 160 159 160 160 160 162 164 163
86 107 112 79 105 148 200 242 346 46 81 18 329 329 79 94 84 75 54 35 40 64 91 92 99 108 108 106 106 101 87 72 64 57 49 46 45 38 34 31 25 19 13 6 0 355 349 347 346 347 351 353 354 355 358 2 4 4 5 4 4 7 10 12 15 16 14 14 13 9 2 350 244 188 166 161 164 155 149 149 151 151 153 156 158 155
95 93 83 48 85 134 173 330 49 109 177 108 44 62 96 99 93 87 75 58 63 82 93 96 100 104 104 106 111 112 102 86 72 60 48 42 38 35 36 32 26 25 18 7 0 353 349 350 349 349 353 357 359 2 4 5 7 9 12 12 11 13 14 15 18 18 17 18 19 17 15 17 42 119 128 132 142 144 141 140 140 142 147 151 152 147
116 111 100 58 60 112 89 35 116 141 126 115 107 96 100 96 93 88 68 51 60 88 102 107 111 112 114 119 122 117 112 100 76 57 45 37 33 34 36 29 22 23 17 6 358 351 351 353 350 350 356 1 6 9 9 10 13 15 15 16 17 17 16 18 21 20 19 20 21 24 26 31 53 91 111 115 118 125 130 129 128 132 139 142 140 136
115 122 111 63 35 110 99 72 96 118 136 150 157 190 117 80 237 113 83 54 49 87 118 122 123 127 129 132 136 138 138 116 71 48 35 32 33 33 34 27 17 15 13 6 1 1 3 2 359 1 5 10 15 16 14 18 23 21 18 18 20 20 17 18 21 21 21 20 22 28 33 37 51 77 103 112 105 103 117 122 122 126 131 133 131 129
85 119 135 116 70 102 105 104 123 151 193 171 148 186 339 289 234 153 107 75 41 89 134 138 136 142 146 149 159 171 174 111 60 41 22 26 28 28 32 28 19 17 14 8 6 9 10 9 9 12 16 20 21 20 20 25 29 27 23 20 21 21 18 17 18 21 23 23 24 32 40 45 51 61 82 101 102 98 109 119 123 124 128 131 131 129
57 63 99 100 100 118 116 123 151 186 225 137 131 308 333 319 219 132 91 95 74 91 137 150 150 157 162 166 176 190 204 73 94 89 19 22 27 32 35 27 21 20 17 14 12 9 9 11 14 19 24 24 21 20 25 30 33 32 27 22 23 24 20 16 16 20 27 30 32 37 45 52 56 57 65 82 93 93 100 114 125 129 129 129 128 125
42 28 56 92 113 114 107 108 120 153 190 11 344 302 323 326 235 138 128 204 136 71 89 141 152 162 167 168 177 202 337 81 140 141 65 55 52 46 42 32 25 21 18 19 18 13 13 17 18 19 20 18 17 21 26 30 34 34 28 25 27 25 20 16 16 22 32 39 42 45 49 57 63 62 61 72 86 91 94 106 120 127 127 124 122 121
31 28 59 103 107 88 88 101 97 114 120 11 315 299 310 319 209 176 202 178 117 78 67 97 113 122 133 139 147 122 53 77 108 109 80 72 59 46 43 42 40 36 31 27 22 18 19 21 21 21 21 19 21 23 24 28 32 31 29 29 27 22 20 21 23 27 35 43 49 50 50 57 68 74 70 72 81 88 91 98 109 117 119 117 114 112
41 39 39 75 105 103 98 101 108 125 88 3 307 311 342 46 195 188 130 109 104 95 86 86 91 98 101 98 100 104 93 87 94 98 85 77 66 46 42 41 40 38 36 35 30 25 22 21 22 23 23 24 26 24 24 26 27 26 28 30 27 23 26 31 33 34 37 42 47 52 53 54 65 78 83 82 82 82 82 88 98 107 110 110 107 103
104 89 62 69 105 99 81 81 131 154 58 322 290 317 6 54 162 136 106 100 100 100 98 91 86 92 101 103 105 109 107 100 98 99 89 80 73 61 52 45 36 30 30 31 30 29 26 24 22 21 22 25 26 26 27 27 25 24 26 26 26 30 35 37 39 40 43 44 45 49 53 55 59 70 80 86 90 87 81 79 86 96 104 104 101 96
358 119 140 151 157 98 107 119 133 96 352 332 138 111 64 86 126 126 116 109 104 103 102 97 93 97 108 114 114 112 111 109 109 104 84 63 61 59 55 47 35 28 26 27 30 33 33 30 27 25 25 26 27 27 27 26 25 26 26 24 26 34 39 40 42 43 45 47 48 48 51 55 60 66 71 79 88 91 88 86 82 86 96 101 98 93
40 103 111 98 76 77 97 109 97 70 42 50 82 98 95 93 100 111 114 114 113 113 111 110 110 111 114 118 120 119 117 115 116 114 102 78 64 54 47 38 29 25 23 26 33 35 35 35 33 30 26 24 24 24 25 25 26 25 23 22 25 32 37 40 43 44 44 47 51 53 54 53 56 63 67 72 80 84 88 94 95 89 92 98 98 95
114 105 90 93 106 92 72 77 92 85 72 70 74 83 92 93 95 107 110 110 109 107 107 113 121 126 126 123 121 118 120 123 118 117 119 106 81 56 39 25 22 25 24 21 24 28 29 31 30 26 23 21 20 19 19 22 26 25 19 20 27 33 35 38 41 43 43 44 48 54 58 56 54 58 62 67 73 78 82 92 100 99 96 97 98 97
72 74 78 105 134 116 78 91 101 93 89 89 86 85 88 89 92 100 104 107 109 108 112 122 126 129 128 124 122 120 120 121 117 117 153 171 193 259 307 345 358 9 9 4 8 11 13 16 15 15 18 20 21 22 20 19 24 25 20 22 29 34 35 36 38 40 40 41 44 49 56 59 57 56 59 62 67 74 81 90 102 108 105 100 96 91
88 86 92 93 90 84 97 112 106 93 91 93 93 98 100 97 99 96 94 102 109 113 129 139 135 130 124 121 127 129 129 140 148 159 201 238 242 251 271 300 323 340 347 348 352 355 357 1 2 4 10 15 18 22 21 19 20 21 20 22 26 30 33 36 38 38 37 40 42 44 52 61 64 61 60 61 63 68 73 81 94 105 107 102 98 98
104 89 107 107 96 87 98 114 113 102 94 87 89 104 110 109 111 107 102 109 116 120 128 131 128 134 144 147 144 134 137 180 189 179 198 233 246 255 271 289 304 317 326 331 337 340 345 348 349 356 7 11 10 11 14 20 25 24 22 22 22 24 32 40 44 42 40 41 43 44 46 55 64 68 68 66 67 68 69 73 79 86 88 84 84 92
93 104 120 119 116 119 139 148 148 129 117 121 122 119 120 121 119 115 116 124 129 131 130 116 106 121 142 152 153 145 152 198 209 199 216 242 258 273 289 302 312 317 318 322 326 331 337 340 340 348 5 12 10 11 16 23 30 31 28 28 30 29 29 36 45 48 47 45 45 46 46 48 55 65 71 75 77 76 76 76 76 76 77 74 71 74
122 146 151 133 124 142 157 162 162 124 120 138 139 129 131 133 124 124 134 141 141 147 146 134 123 129 141 155 163 159 162 181 195 210 245 267 277 300 325 331 325 323 323 323 323 323 326 330 330 336 356 8 12 19 28 28 26 30 34 34 36 35 26 22 30 42 47 47 44 43 46 49 51 57 66 75 83 87 87 87 85 82 81 80 80 81